Location: Croydon
(51.3762°N, 0.0982°W)
Time: 19:31:15
(UTC+01:00)

STRAND 1 - Visible Passes

Search period start: 22 October 2019 00:00
Search period end: 31 October 2019 23:00
Orbit: 769 x 780 km, 98.5° (Epoch: 22 October)

Date Brightness Start Highest point End Pass type
(mag) Time Alt. Az. Time Alt. Az. Time Alt. Az.
22 Oct ? 06:22:06 10° ESE 06:26:31 30° ENE 06:30:58 10° N visible
22 Oct ? 20:05:22 10° NNE 20:06:07 14° NNE 20:06:07 14° NNE visible
22 Oct ? 21:44:39 10° N 21:46:28 20° N 21:46:28 20° N visible
23 Oct ? 05:49:32 10° E 05:52:55 18° NE 05:56:19 10° NNE visible
23 Oct ? 21:10:25 10° N 21:11:40 18° N 21:11:40 18° N visible
23 Oct ? 22:51:14 10° NNW 22:52:03 12° NNW 22:52:03 12° NNW visible
24 Oct ? 05:18:15 10° ENE 05:19:27 11° NE 05:20:39 10° NNE visible
24 Oct ? 06:52:33 10° SE 06:57:30 50° ENE 07:02:29 10° N visible
24 Oct ? 20:36:23 10° NNE 20:36:53 13° NNE 20:36:53 13° NNE visible
24 Oct ? 22:16:18 10° N 22:17:15 14° NNW 22:17:15 14° NNW visible
25 Oct ? 06:19:23 10° ESE 06:23:45 29° ENE 06:28:07 10° N visible
25 Oct ? 21:41:49 10° N 21:42:29 13° N 21:42:29 13° N visible
26 Oct ? 05:46:52 10° E 05:50:09 17° NE 05:53:26 10° NNE visible
26 Oct ? 21:07:36 10° N 21:07:44 11° N 21:07:44 11° N visible
27 Oct ? 04:15:57 10° NE 04:16:42 10° NE 04:17:28 10° NE visible
27 Oct ? 05:49:48 10° SE 05:54:43 47° ENE 05:59:40 10° N visible
28 Oct ? 05:16:41 10° ESE 05:20:58 27° ENE 05:25:17 10° N visible
29 Oct ? 04:44:13 10° E 04:47:23 17° NE 04:50:33 10° NNE visible
30 Oct ? 05:47:02 10° SE 05:51:55 45° ENE 05:56:50 10° N visible
31 Oct ? 05:13:58 10° ESE 05:18:11 26° ENE 05:22:26 10° N visible
